[[{"header":{"parameterUnit":"m.s-1","parameterCategory":1,"la1":30.2991,"la2":30.254,"lo1":-89.0895,"lo2":-89.0444,"dy":0.0017,"dx":0.0017,"nx":28,"ny":28,"refTime":"2023-10-14T09:00:00:Z","depth":0,"parameterNumber":2,"parameterNumberName":"U-component_of_WINDS"},"data":[0,0,0,0,0,0,0,0,0,0,0,0,0,0,0,0,0,0,0,0,0,0,0,0,0,0,0,0,0,0,0,0,0,0,0,0,0,0,0,0,0,0,0,0,0,0,0,0,0,0,0,0,0,0,0,0,0,0,2.0648,2.0648,0,2.0662,2.0662,2.0662,2.0644,2.0644,2.0643,2.0643,2.0657,2.0658,2.0659,0,0,0,0,0,0,0,0,0,0,0,0,0,2.0607,2.0608,2.0648,2.0648,2.0648,2.0662,2.0662,2.0662,2.0645,2.0644,2.0643,2.0642,2.0657,2.0658,2.0659,0,0,0,0,0,0,0,0,0,0,0,0,0,2.0623,2.0608,2.0648,2.0641,2.064,2.0662,2.0662,2.0662,2.0645,2.0644,2.0643,2.0642,2.0656,2.0658,2.0659,2.0687,0,0,2.0664,2.0664,0,0,0,0,0,0,0,0,2.0622,2.0625,2.0642,2.0641,2.0641,2.065,2.0653,2.0671,2.0645,2.0643,2.0643,2.0641,2.0655,2.0657,2.0662,2.0688,2.0689,2.0664,2.0665,2.0665,2.0666,0,0,0,0,0,0,0,2.0621,2.0624,2.0653,2.0642,2.0642,2.0638,2.0639,2.0656,2.0655,2.0643,2.0642,2.0644,2.0655,2.066,2.0662,2.0689,2.0664,2.0665,2.0666,2.0666,2.0741,2.0743,0,0,0,0,0,0,2.0621,2.0623,2.0653,2.0654,2.0629,2.0639,2.0641,2.0648,2.0654,2.0654,2.0645,2.0643,2.0658,2.066,2.0662,2.0697,2.0665,2.0667,2.0667,2.074,2.0742,2.0743,0,0,0,0,0,0,2.062,2.0624,2.0652,2.0638,2.0641,2.0641,2.065,2.0649,2.0654,2.0655,2.0655,2.065,2.0658,2.066,2.0682,2.0697,2.0667,2.0669,2.0739,2.0741,2.0742,2.0766,0,0,0,0,0,0,2.0619,2.0623,2.0634,2.0638,2.0642,2.0671,2.0651,2.065,2.0657,2.0655,2.0661,2.0661,2.0657,2.068,2.0683,2.0699,2.067,2.0738,2.074,2.0742,2.0764,2.0768,2.0772,0,0,0,0,0,2.0617,2.0639,2.0634,2.0638,2.0655,2.0672,2.0674,2.067,2.0658,2.0669,2.067,2.066,2.0695,2.0682,2.0686,2.0702,2.0737,2.0739,2.0742,2.0762,2.0767,2.0772,0,0,0,0,0,0,2.0635,2.064,2.0634,2.0658,2.0665,2.0669,2.0682,2.0675,2.0685,2.0683,2.0677,2.0678,2.0702,2.0704,2.0689,2.0731,2.0714,2.0717,2.0728,2.0733,2.0737,2.0736,2.0671,0,0,0,0,0,2.0642,2.0655,2.0658,2.0679,2.0683,2.0682,2.0689,2.0686,2.0692,2.0695,2.0697,2.0705,2.0717,2.0725,2.0737,2.0765,2.0766,2.0778,2.0782,2.0785,2.0788,2.0804,2.081,2.0751,2.0751,2.0751,0,0,2.0656,2.066,2.0669,2.0683,2.0688,2.0702,2.0685,2.07,2.0711,2.0697,2.0718,2.072,2.0728,2.0753,2.0764,2.0756,2.0805,2.0788,2.0791,2.0792,2.0807,2.0813,2.0818,2.0753,2.0753,2.0752,0,0,2.0689,2.0693,2.0712,2.0718,2.0725,2.0725,2.073,2.0735,2.0737,2.0758,2.0748,2.0761,2.0783,2.0789,2.0795,2.0833,2.0825,2.0837,2.0859,2.0874,2.0879,2.0883,2.0897,2.0903,2.084,2.084,2.084,0,2.0706,2.0726,2.0722,2.0739,2.0746,2.0736,2.0755,2.0761,2.0772,2.0777,2.0768,2.0796,2.08,2.0827,2.0837,2.0842,2.0848,2.0836,2.0879,2.0883,2.0886,2.09,2.0905,2.0842,2.0842,2.0841,2.0841,0,2.0747,2.0762,2.0776,2.0788,2.0797,2.0814,2.0814,2.0823,2.082,2.082,2.0843,2.0848,2.0861,2.0868,2.0863,2.0895,2.0889,2.088,2.0862,2.0894,2.0906,2.0911,2.0844,2.0843,2.0843,2.0843,0,0,2.0789,2.0801,2.0806,2.0812,2.0821,2.0833,2.0851,2.0864,2.0873,2.0882,2.0898,2.0917,2.0909,2.0916,2.0913,2.0927,2.0958,2.0915,2.0916,2.0924,2.0994,2.1001,2.1007,2.0953,2.0954,2.0955,2.0993,0,2.0823,2.0854,2.0852,2.0882,2.0896,2.0888,2.0904,2.0912,2.0914,2.0927,2.0929,2.0943,2.0931,2.0935,2.0949,2.0951,2.0972,2.0949,2.0968,2.0969,2.0966,2.1014,2.1021,2.1057,2.0998,2.0999,2.1,0,2.0865,2.0877,2.0908,2.0917,2.0923,2.0937,2.0951,2.0963,2.0972,2.0973,2.0982,2.0977,2.0997,2.098,2.1007,2.0991,2.0999,2.1002,2.1004,2.1005,2.0986,2.1016,2.1068,2.1074,2.1007,2.1007,2.1006,0,2.0894,2.0917,2.094,2.0945,2.0956,2.0966,2.0971,2.098,2.0989,2.1,2.1006,2.102,2.1028,2.1039,2.1038,2.1026,2.1066,2.1049,2.1068,2.1068,2.1076,2.1075,2.113,2.1082,2.1081,2.1081,2.1081,0,2.0932,2.0951,2.0953,2.0966,2.0989,2.0987,2.1009,2.1013,2.1021,2.1036,2.103,2.1044,2.1043,2.1057,2.1057,2.108,2.1084,2.1085,2.1085,2.1086,2.1085,2.109,2.1088,2.1083,2.1082,2.1082,2.1082,0,2.0967,2.0969,2.0993,2.1001,2.1004,2.102,2.1028,2.1042,2.1044,2.1063,2.1067,2.1071,2.1088,2.1089,2.1108,2.1109,2.1137,2.1134,2.1134,2.1133,2.1152,2.115,2.1211,2.1219,2.1166,2.1166,2.1167,0,2.099,2.1006,2.1017,2.1027,2.1032,2.1048,2.1057,2.1057,2.1067,2.108,2.1092,2.1109,2.1122,2.115,2.1155,2.117,2.1167,2.1188,2.1169,2.117,2.1168,2.1167,2.1169,2.1191,2.1192,2.1192,2.1192,0,2.1032,2.1033,2.1047,2.1062,2.1074,2.1085,2.1096,2.1105,2.1106,2.1118,2.1135,2.1146,2.1167,2.1183,2.1199,2.1204,2.1199,2.1198,2.1204,2.1204,2.1204,2.1205,2.1143,2.1197,2.1196,2.1196,2.1196,2.1196,2.1063,2.1076,2.1087,2.1103,2.1112,2.1123,2.1136,2.1141,2.1156,2.1173,2.1172,2.1192,2.1203,2.1223,2.123,2.1246,2.1239,2.1246,2.1248,2.125,2.1252,2.1202,2.1249,2.1249,2.1248,2.1248,2.1248,0,2.1105,2.1111,2.1127,2.1143,2.1156,2.1151,2.1163,2.1174,2.1192,2.1203,2.1216,2.1238,2.1255,2.1262,2.1278,2.129,2.1288,2.1294,2.1293,2.1295,2.1257,2.1251,2.1296,2.1296,2.1296,2.1296,2.1296,2.1296,2.1128,2.1151,2.1154,2.1182,2.1189,2.1208,2.1216,2.1226,2.1235,2.1259,2.1274,2.1278,2.1288,2.1306,2.1322,2.1323,2.133,2.1337,2.1338,2.1302,2.1297,2.1293,2.1287,2.1339,2.1339,2.1375,2.1375,2.1375]},{"header":{"parameterUnit":"m.s-1","parameterCategory":1,"la1":30.2991,"la2":30.254,"lo1":-89.0895,"lo2":-89.0444,"dy":0.0017,"dx":0.0017,"nx":28,"ny":28,"refTime":"2023-10-14T09:00:00:Z","depth":0,"parameterNumber":3,"parameterNumberName":"V-component_of_WINDS"},"data":[0,0,0,0,0,0,0,0,0,0,0,0,0,0,0,0,0,0,0,0,0,0,0,0,0,0,0,0,0,0,0,0,0,0,0,0,0,0,0,0,0,0,0,0,0,0,0,0,0,0,0,0,0,0,0,0,0,0,-6.8051,-6.8052,0,-6.8154,-6.8155,-6.8156,-6.8128,-6.8126,-6.8124,-6.8122,-6.8221,-6.8225,-6.823,0,0,0,0,0,0,0,0,0,0,0,0,0,-6.7825,-6.7829,-6.8051,-6.8052,-6.8053,-6.8153,-6.8155,-6.8156,-6.8128,-6.8126,-6.8123,-6.8121,-6.8219,-6.8225,-6.823,0,0,0,0,0,0,0,0,0,0,0,0,0,-6.7925,-6.7831,-6.805,-6.8052,-6.8053,-6.8153,-6.8155,-6.8157,-6.8129,-6.8126,-6.8123,-6.812,-6.8217,-6.8224,-6.8231,-6.8334,0,0,-6.8252,-6.8255,0,0,0,0,0,0,0,0,-6.7919,-6.7933,-6.805,-6.8052,-6.8053,-6.8125,-6.8111,-6.8216,-6.813,-6.81,-6.8122,-6.8118,-6.8191,-6.82,-6.8226,-6.8339,-6.8343,-6.8252,-6.8256,-6.8259,-6.8261,0,0,0,0,0,0,0,-6.7912,-6.7928,-6.8091,-6.8052,-6.8054,-6.8045,-6.8056,-6.8131,-6.8161,-6.8102,-6.81,-6.8113,-6.8191,-6.8219,-6.8228,-6.8344,-6.8252,-6.8258,-6.8262,-6.8265,-6.8549,-6.8553,0,0,0,0,0,0,-6.7905,-6.7923,-6.8088,-6.8094,-6.7977,-6.8052,-6.8064,-6.8105,-6.816,-6.8166,-6.8116,-6.8112,-6.8209,-6.822,-6.8231,-6.8357,-6.8259,-6.8266,-6.8269,-6.8546,-6.855,-6.8554,0,0,0,0,0,0,-6.79,-6.792,-6.8084,-6.8008,-6.8028,-6.8059,-6.8105,-6.8109,-6.8137,-6.8171,-6.8175,-6.8139,-6.8207,-6.8221,-6.831,-6.836,-6.8269,-6.8275,-6.8542,-6.8547,-6.8552,-6.8609,0,0,0,0,0,0,-6.7894,-6.7918,-6.7959,-6.8009,-6.8033,-6.8162,-6.8108,-6.8113,-6.8149,-6.8145,-6.8194,-6.8199,-6.8206,-6.83,-6.8316,-6.8368,-6.828,-6.8537,-6.8544,-6.855,-6.8603,-6.8616,-6.8627,0,0,0,0,0,-6.7886,-6.7969,-6.7961,-6.7981,-6.8084,-6.8165,-6.8178,-6.8186,-6.8153,-6.8194,-6.8216,-6.8197,-6.8352,-6.8309,-6.8328,-6.8382,-6.8534,-6.8542,-6.855,-6.8598,-6.8613,-6.8626,0,0,0,0,0,0,-6.7921,-6.7976,-6.7967,-6.807,-6.8114,-6.816,-6.8212,-6.8202,-6.8254,-6.8247,-6.8253,-6.8264,-6.8355,-6.8377,-6.8328,-6.8486,-6.8438,-6.845,-6.8468,-6.8483,-6.8495,-6.8487,-6.8286,0,0,0,0,0,-6.7941,-6.8004,-6.8048,-6.8134,-6.8156,-6.8181,-6.8216,-6.8219,-6.8263,-6.8281,-6.8309,-6.8351,-6.8409,-6.8447,-6.8502,-6.8606,-6.8617,-6.8653,-6.8664,-6.8674,-6.8684,-6.8742,-6.8759,-6.858,-6.858,-6.8579,0,0,-6.7982,-6.802,-6.8059,-6.8142,-6.8176,-6.824,-6.8196,-6.8265,-6.8312,-6.829,-6.8376,-6.8399,-6.8446,-6.8543,-6.8587,-6.8564,-6.8736,-6.8684,-6.8691,-6.8696,-6.8752,-6.8769,-6.8784,-6.8585,-6.8584,-6.8583,0,0,-6.809,-6.8125,-6.8202,-6.8238,-6.8291,-6.8307,-6.8326,-6.8375,-6.839,-6.8477,-6.8463,-6.8518,-6.8618,-6.8653,-6.8683,-6.8808,-6.8793,-6.8825,-6.8887,-6.8943,-6.8957,-6.897,-6.9015,-6.9031,-6.8835,-6.8835,-6.8835,0,-6.8134,-6.8232,-6.8241,-6.8313,-6.835,-6.8337,-6.8414,-6.8447,-6.8515,-6.854,-6.8514,-6.8641,-6.8671,-6.8777,-6.8808,-6.8833,-6.8854,-6.8819,-6.8955,-6.8968,-6.8979,-6.9022,-6.9039,-6.8839,-6.8839,-6.8838,-6.8838,0,-6.8283,-6.8352,-6.8407,-6.8476,-6.8519,-6.8593,-6.8613,-6.8655,-6.8654,-6.8673,-6.8762,-6.8799,-6.8862,-6.8887,-6.8886,-6.8994,-6.8978,-6.8954,-6.8906,-6.9,-6.9041,-6.9057,-6.8844,-6.8843,-6.8842,-6.8841,0,0,-6.8415,-6.8491,-6.8511,-6.8544,-6.8603,-6.8655,-6.8728,-6.8793,-6.8829,-6.8876,-6.8938,-6.9024,-6.9003,-6.9037,-6.904,-6.9089,-6.9187,-6.9059,-6.906,-6.9082,-6.9309,-6.9327,-6.9346,-6.9178,-6.9181,-6.9183,-6.9305,0,-6.8529,-6.8661,-6.8673,-6.879,-6.8854,-6.8843,-6.8906,-6.8949,-6.8968,-6.9024,-6.9044,-6.9106,-6.9072,-6.9094,-6.9142,-6.9165,-6.9232,-6.9156,-6.9234,-6.9236,-6.9223,-6.9367,-6.9386,-6.9499,-6.9321,-6.9323,-6.9325,0,-6.8679,-6.8735,-6.886,-6.8912,-6.8939,-6.8997,-6.9058,-6.9111,-6.9159,-6.917,-6.9211,-6.9207,-6.9282,-6.9232,-6.9334,-6.9282,-6.9314,-6.9331,-6.9335,-6.9343,-6.9287,-6.9379,-6.9535,-6.9553,-6.935,-6.9348,-6.9346,0,-6.8764,-6.8869,-6.8959,-6.8986,-6.9049,-6.909,-6.9118,-6.9163,-6.9202,-6.9255,-6.928,-6.934,-6.9373,-6.9418,-6.9431,-6.9393,-6.9533,-6.9484,-6.9544,-6.9544,-6.9573,-6.9571,-6.9738,-6.9594,-6.9593,-6.9593,-6.9593,0,-6.889,-6.8967,-6.8998,-6.9053,-6.9139,-6.9151,-6.9236,-6.9261,-6.9301,-6.936,-6.9353,-6.9407,-6.9421,-6.9477,-6.9487,-6.9571,-6.9585,-6.9595,-6.9597,-6.9597,-6.9595,-6.9618,-6.961,-6.9598,-6.9597,-6.9596,-6.9595,0,-6.8999,-6.9023,-6.9119,-6.9173,-6.9188,-6.9249,-6.9293,-6.9346,-6.9365,-6.9439,-6.9457,-6.9487,-6.9554,-6.9571,-6.965,-6.9657,-6.9756,-6.975,-6.9741,-6.9741,-6.9799,-6.9794,-6.9986,-7.0012,-6.9851,-6.9852,-6.9853,0,-6.9078,-6.9138,-6.9198,-6.9239,-6.9269,-6.9333,-6.9374,-6.9389,-6.9431,-6.9492,-6.9537,-6.9603,-6.9657,-6.9764,-6.9792,-6.9852,-6.9848,-6.9911,-6.9857,-6.9855,-6.985,-6.9846,-6.9853,-6.9921,-6.9923,-6.9924,-6.9926,0,-6.9216,-6.9226,-6.9286,-6.9352,-6.9402,-6.9453,-6.9502,-6.9535,-6.9556,-6.9604,-6.9674,-6.9716,-6.9799,-6.9865,-6.9927,-6.9953,-6.9943,-6.9943,-6.996,-6.996,-6.9953,-6.9958,-6.977,-6.9938,-6.9937,-6.9936,-6.9935,-6.9935,-6.9313,-6.9367,-6.9419,-6.9487,-6.9526,-6.9573,-6.9625,-6.9653,-6.9712,-6.9783,-6.9787,-6.9863,-6.991,-6.9993,-7.0023,-7.0082,-7.0062,-7.0087,-7.0093,-7.0099,-7.0105,-6.9944,-7.0092,-7.0092,-7.0092,-7.0092,-7.0091,0,-6.9452,-6.9486,-6.9549,-6.962,-6.9673,-6.9662,-6.9716,-6.9761,-6.9829,-6.9876,-6.993,-7.0011,-7.0076,-7.0109,-7.0173,-7.0214,-7.0211,-7.023,-7.0227,-7.0234,-7.0118,-7.0097,-7.0231,-7.0231,-7.0231,-7.0231,-7.0231,-7.0231,-6.9531,-6.9621,-6.9637,-6.9747,-6.978,-6.9857,-6.9889,-6.9932,-6.9969,-7.0061,-7.0116,-7.0138,-7.0179,-7.0247,-7.0305,-7.0313,-7.0337,-7.0359,-7.0365,-7.0256,-7.0242,-7.0228,-7.0209,-7.0364,-7.0364,-7.0476,-7.0477,-7.0478]}]]